Showing default

HUBBLE 6, 64562

Orbit data source: Space-Track

HUBBLE 6, 64562 is an American payload satellite in SSO that was launched on Mon, 23 Jun 2025 UTC via an FALCON 9 launch vehicle from the Air Force Western Test Range (AFWTR). Payload-class satellites include a variety of spacecraft equipped with specific instruments for various scientific and technological missions. These include communications satellites like Starlink; space stations such as the ISS; scientific satellites like the Hubble; Earth observation satellites from companies like Planet Labs, Umbra, and HawkEye 360; GPS; miniature CubeSats for education and research; and military/defense satellites.

Loading next visibility...
Identifier
64562, 2025-135AL
Orbit
SSO
Country
Flag of USUS
Related business
Manufacturer
Endurosat
Mission
Operational Commercial Communications
Bus & Motor
CUBESAT 16U, Unknown motor
Mass
22 kg wet, 22 kg dry
Launch date (UTC)
2025-06-23 (1 year ago)
Launch vehicle
FALCON 9
Launch site
Air Force Western Test Range (AFWTR)
Object type
Payload
Rocket body
Debris
Shape & HBR
Box + 4 Pan, 1.0 m
Radar Cross Section
0.326 m², Medium (>0.1 m² and < 1m²)

Expand to show TLE details & history
Last TLE update: 14 hours ago

TLE from 14 hours ago
0 HUBBLE 6
1 64562U 25135AL  26171.27113372  .00001486  00000-0  14593-3 0  9996
2 64562  97.7753 285.4092 0001791  99.1832 260.9591 14.93664944 54330
Epoch: 2026-06-20T06:30Z
TLE epoch observation values (Epoch: 2026-06-20T06:30:25.953Z)
Latitude
0.00004°
Longitude
-80.6871°
Altitude
589.76 km
Speed
7.565 km/s
True Right ascension
19h 01m 38s
True Declination
0° 00' 00"
Sunlit
Object was in full shadow at epoch
Visualization orbit readout
Latitude
Unknown
Longitude
Unknown
Altitude
Unknown
Speed
Unknown
Apparent Right ascension
Unknown
Apparent Declination
Unknown
Sunlit
N/A
Visualization observer readout
Local Sidereal Time
07:23:35
Azimuth
Unknown
Elevation
Unknown
Doppler factor
Unknown
Orbital elements
Apogee altitude
584.784 km
Perigee altitude
582.29 km
Semi-major axis
6,961.674 km
Eccentricity
0.00018
Inclination
97.7753°
RAAN
285.4092°
Arg. of periapsis
99.1832°
True anomaly
260.93883°
Mean anomaly
260.9591°
Eccentric anomaly
260.94897°
Mean motion
3.73657 °/min
Orbital period
96.35 mins
BSTAR
0.00014593
Loading maneuver chart data...
Computing Atmospheric mass density...
Loading historical data...
Loading historical data...
Loading historical data...
Loading historical data...
Loading historical data...
Loading historical data...
Loading historical data...

Documentation

Showing up to 5 results
|